Погода в Покровке

Россия / Алтайский край     52°46′27″N   81°52′43″E
темп.,
°C
ветер,
м/с
пор.,
м/с
влажн.,
%
обл.,
%
осадки,
мм/ч
давл.,
гПа
погр.,
м
14 апреля, ср
ср1401:00−3сз259639 0.0 103789
04:00−1ссз4590100 0.0 1037414
07:000сз3386100 0.0 103791
10:000юз359199 0.0 1037331
13:00+3зюз4681100 0.0 1035536
16:00+7зюз4865100 0.0 1032671
19:00+5зюз4769100 0.0 103099
22:00+4зюз3570100 0.0 102946
15 апреля, чт
чт1501:00+3зюз337999 0.0 102837
04:00+2з33885 0.0 102827
07:00+2з2294100 0.0 102826
10:00+3з2295100 0.1 102837
13:00+5зюз2388100 0.1 1027167
16:00+7з2385100 0.0 1026157
19:00+7зюз118537 0.0 102412
22:00+5ююз11866 0.0 102410
16 апреля, пт
пт1601:00+4ююз228754 0.0 102313
04:00+5ююз348933 0.0 102154
07:00+3ююз338918 0.0 102136
10:00+8юз46775 0.0 1020243
13:00+13юз45550 0.0 10181142
16:00+16зюз45450 0.0 10151541
19:00+15з35505 0.0 1014480
22:00+11зюз33595 0.0 101418
17 апреля, сб
сб1701:00+9ююз3368100 0.0 101235
04:00+8зсз3373100 0.0 101137
07:00+6ссв5897100 0.1 1012306
10:00+4св5690100 0.3 1013397
13:00+10с557396 0.0 1007676
16:00+5св4482100 0.0 1013482
19:00+4св4482100 0.0 1014406
22:00+3св338555 0.0 1014253
18 апреля, вс
вс1801:00+1всв1192100 0.0 101363
04:00+2з2498100 0.1 1012243
07:00+1зсз3699100 1.2 1012212
10:00+1зсз4789100 0.1 1012600
13:00+5зсз5653100 0.1 10121226
16:00+7зсз5643100 0.0 10121853
19:00+3с3241100 0.0 10191270
22:00+1ссз4755100 0.0 1015320